QFA605 CYXY-PANC

Flight info

Callsign QFA605
Flight time 1h 28m
Altitude 38000
Route JAGIT DCT TMSON PTERS3
Aircraft A320/M-SDE3FGHIRWY/LB1

Departure

Time 2026-05-06 06:12
Airport Whitehorse / Erik Nielsen International Airport (CYXY)

Arrival

Time 2026-05-06 07:40
Airport Ted Stevens Anchorage International Airport (PANC)
Time Latitude Longitude Altitude Speed Heading
2026-05-06 06:03 60.71530 -135.07587 2287 ft 0 kts 222°
2026-05-06 06:06 60.71542 -135.07565 2298 ft 2 kts 222°
2026-05-06 06:06 60.71555 -135.07543 2302 ft 2 kts 230°
2026-05-06 06:06 60.71561 -135.07512 2298 ft 2 kts 301°
2026-05-06 06:06 60.71553 -135.07493 2300 ft 0 kts 352°
2026-05-06 06:09 60.71558 -135.07495 2297 ft 3 kts 351°
2026-05-06 06:09 60.71604 -135.07505 2304 ft 10 kts 346°
2026-05-06 06:09 60.71664 -135.07554 2301 ft 7 kts 338°
2026-05-06 06:09 60.71721 -135.07595 2294 ft 11 kts 339°
2026-05-06 06:10 60.71800 -135.07658 2300 ft 13 kts 338°
2026-05-06 06:10 60.71885 -135.07683 2290 ft 12 kts 26°
2026-05-06 06:10 60.71915 -135.07560 2295 ft 8 kts 69°
2026-05-06 06:10 60.71909 -135.07465 2306 ft 7 kts 134°
2026-05-06 06:11 60.71862 -135.07429 2302 ft 8 kts 161°
2026-05-06 06:11 60.71722 -135.07320 2295 ft 51 kts 159°
2026-05-06 06:11 60.71182 -135.06904 2292 ft 112 kts 159°
2026-05-06 06:11 60.70310 -135.06238 2481 ft 142 kts 160°
2026-05-06 06:12 60.69377 -135.05511 3110 ft 145 kts 159°
2026-05-06 06:12 60.68433 -135.04766 3820 ft 147 kts 160°
2026-05-06 06:12 60.67489 -135.03748 4232 ft 165 kts 133°
2026-05-06 06:12 60.67015 -135.01483 4514 ft 190 kts 94°
2026-05-06 06:13 60.67394 -134.98700 4791 ft 223 kts 61°
2026-05-06 06:13 60.68593 -134.96479 5150 ft 256 kts 26°
2026-05-06 06:13 60.70434 -134.95961 5567 ft 284 kts 349°
2026-05-06 06:13 60.72256 -134.97750 6133 ft 295 kts 311°
2026-05-06 06:14 60.73321 -135.01203 6808 ft 285 kts 279°
2026-05-06 06:14 60.73636 -135.05145 7747 ft 278 kts 265°
2026-05-06 06:14 60.73674 -135.09075 8729 ft 276 kts 262°
2026-05-06 06:14 60.73671 -135.13014 9704 ft 277 kts 262°
2026-05-06 06:15 60.73708 -135.16992 10224 ft 295 kts 264°
2026-05-06 06:15 60.73814 -135.21326 10657 ft 313 kts 266°
2026-05-06 06:15 60.74004 -135.25816 11431 ft 319 kts 268°
2026-05-06 06:15 60.74251 -135.30350 12274 ft 323 kts 270°
2026-05-06 06:16 60.74531 -135.34927 13124 ft 326 kts 270°
2026-05-06 06:16 60.74822 -135.39545 13920 ft 329 kts 270°
2026-05-06 06:16 60.75112 -135.44214 14554 ft 334 kts 270°
2026-05-06 06:16 60.75398 -135.48969 15195 ft 338 kts 270°
2026-05-06 06:17 60.75681 -135.53774 15898 ft 343 kts 270°
2026-05-06 06:17 60.75962 -135.58645 16623 ft 347 kts 270°
2026-05-06 06:17 60.76245 -135.63557 17354 ft 349 kts 270°
2026-05-06 06:17 60.76528 -135.68501 18018 ft 351 kts 270°
2026-05-06 06:18 60.76811 -135.73493 18577 ft 354 kts 270°
2026-05-06 06:18 60.77093 -135.78522 19132 ft 357 kts 270°
2026-05-06 06:18 60.77372 -135.83596 19714 ft 360 kts 270°
2026-05-06 06:18 60.77652 -135.88709 20291 ft 363 kts 270°
2026-05-06 06:19 60.77932 -135.93852 20838 ft 365 kts 270°
2026-05-06 06:19 60.78213 -135.99034 21397 ft 368 kts 269°
2026-05-06 06:19 60.78496 -136.04256 21942 ft 370 kts 269°
2026-05-06 06:19 60.78780 -136.09507 22485 ft 373 kts 269°
2026-05-06 06:20 60.79065 -136.14795 23037 ft 375 kts 269°
2026-05-06 06:20 60.79351 -136.20125 23539 ft 378 kts 269°
2026-05-06 06:20 60.79635 -136.25484 24021 ft 380 kts 269°
2026-05-06 06:20 60.79914 -136.30877 24461 ft 382 kts 269°
2026-05-06 06:21 60.80188 -136.36215 24894 ft 383 kts 269°
2026-05-06 06:21 60.80465 -136.41655 25327 ft 385 kts 269°
2026-05-06 06:21 60.80743 -136.47119 25760 ft 387 kts 269°
2026-05-06 06:21 60.81019 -136.52611 26201 ft 388 kts 269°
2026-05-06 06:22 60.81294 -136.58122 26631 ft 390 kts 269°
2026-05-06 06:22 60.81569 -136.63660 27046 ft 392 kts 269°
2026-05-06 06:22 60.81843 -136.69226 27461 ft 394 kts 269°
2026-05-06 06:22 60.82115 -136.74817 27897 ft 395 kts 269°
2026-05-06 06:23 60.82389 -136.80443 28282 ft 398 kts 269°
2026-05-06 06:23 60.82662 -136.86108 28676 ft 400 kts 269°
2026-05-06 06:23 60.82933 -136.91787 29051 ft 402 kts 269°
2026-05-06 06:23 60.83201 -136.97508 29439 ft 404 kts 269°
2026-05-06 06:24 60.83467 -137.03257 29788 ft 406 kts 269°
2026-05-06 06:24 60.83732 -137.09032 30139 ft 408 kts 269°
2026-05-06 06:24 60.83994 -137.14834 30405 ft 411 kts 268°
2026-05-06 06:24 60.84253 -137.20685 30696 ft 412 kts 268°
2026-05-06 06:25 60.84513 -137.26552 30977 ft 414 kts 268°
2026-05-06 06:25 60.84775 -137.32436 31273 ft 415 kts 268°
2026-05-06 06:25 60.85299 -137.44196 32112 ft 412 kts 268°
2026-05-06 06:26 60.85556 -137.50041 32539 ft 410 kts 268°
2026-05-06 06:26 60.85809 -137.55863 32959 ft 408 kts 268°
2026-05-06 06:26 60.86054 -137.61655 33373 ft 407 kts 268°
2026-05-06 06:26 60.86294 -137.67421 33786 ft 405 kts 268°
2026-05-06 06:27 60.86527 -137.73101 34126 ft 404 kts 268°
2026-05-06 06:27 60.86759 -137.78839 34410 ft 404 kts 268°
2026-05-06 06:27 60.86989 -137.84586 34662 ft 404 kts 268°
2026-05-06 06:27 60.87217 -137.90336 34938 ft 405 kts 268°
2026-05-06 06:28 60.87444 -137.96098 35192 ft 405 kts 267°
2026-05-06 06:28 60.87671 -138.01880 35366 ft 407 kts 268°
2026-05-06 06:28 60.87898 -138.07679 35580 ft 408 kts 268°
2026-05-06 06:28 60.88123 -138.13495 35811 ft 409 kts 268°
2026-05-06 06:29 60.88344 -138.19312 36028 ft 409 kts 268°
2026-05-06 06:29 60.88563 -138.25142 36222 ft 410 kts 268°
2026-05-06 06:29 60.88780 -138.30986 36396 ft 411 kts 268°
2026-05-06 06:29 60.88994 -138.36835 36581 ft 412 kts 268°
2026-05-06 06:30 60.89205 -138.42700 36808 ft 412 kts 268°
2026-05-06 06:30 60.89342 -138.46589 36971 ft 412 kts 268°
2026-05-06 06:30 60.89620 -138.54450 37180 ft 413 kts 268°
2026-05-06 06:30 60.89755 -138.58351 37313 ft 414 kts 268°
2026-05-06 06:31 60.89954 -138.64252 37501 ft 414 kts 268°
2026-05-06 06:31 60.90218 -138.72131 37703 ft 413 kts 268°
2026-05-06 06:31 60.90352 -138.76037 37730 ft 414 kts 268°
2026-05-06 06:32 60.90748 -138.87863 37748 ft 415 kts 268°
2026-05-06 06:32 60.91134 -138.99715 37750 ft 416 kts 268°
2026-05-06 06:33 60.91501 -139.11608 37755 ft 419 kts 268°
2026-05-06 06:33 60.91861 -139.23593 37753 ft 420 kts 268°
2026-05-06 06:34 60.92213 -139.35597 37786 ft 421 kts 268°
2026-05-06 06:34 60.92554 -139.47606 37787 ft 421 kts 268°
2026-05-06 06:35 60.92886 -139.59620 37789 ft 421 kts 268°
2026-05-06 06:35 60.93205 -139.71578 37820 ft 423 kts 268°
2026-05-06 06:36 60.93520 -139.83695 37800 ft 424 kts 268°
2026-05-06 06:36 60.93826 -139.95850 37807 ft 426 kts 268°
2026-05-06 06:37 60.94117 -140.08034 37780 ft 427 kts 268°
2026-05-06 06:37 60.94394 -140.20237 37837 ft 427 kts 267°
2026-05-06 06:38 60.94662 -140.32430 37825 ft 427 kts 267°
2026-05-06 06:38 60.94925 -140.44623 37779 ft 426 kts 267°
2026-05-06 06:39 60.95175 -140.56815 37789 ft 428 kts 267°
2026-05-06 06:39 60.95411 -140.69080 37774 ft 429 kts 267°
2026-05-06 06:40 60.95640 -140.81371 37774 ft 430 kts 267°
2026-05-06 06:40 60.95853 -140.93680 37771 ft 430 kts 266°
2026-05-06 06:41 60.96087 -141.05990 37781 ft 431 kts 268°
2026-05-06 06:41 60.96529 -141.18322 37800 ft 431 kts 269°
2026-05-06 06:42 60.97012 -141.30625 37794 ft 431 kts 269°
2026-05-06 06:42 60.97440 -141.42913 37807 ft 428 kts 268°
2026-05-06 06:43 60.97828 -141.55088 37792 ft 426 kts 267°
2026-05-06 06:43 60.98199 -141.67272 37815 ft 427 kts 267°
2026-05-06 06:44 60.98562 -141.79490 37816 ft 428 kts 267°
2026-05-06 06:44 60.98919 -141.91719 37816 ft 428 kts 267°
2026-05-06 06:45 60.99270 -142.03979 37824 ft 429 kts 267°
2026-05-06 06:45 60.99604 -142.16160 37838 ft 428 kts 267°
2026-05-06 06:46 60.99932 -142.28439 37838 ft 429 kts 267°
2026-05-06 06:46 61.00251 -142.40702 37832 ft 429 kts 267°
2026-05-06 06:47 61.00556 -142.52975 37834 ft 428 kts 266°
2026-05-06 06:47 61.00850 -142.65233 37853 ft 428 kts 267°
2026-05-06 06:48 61.01127 -142.77512 37845 ft 428 kts 267°
2026-05-06 06:48 61.01393 -142.89773 37849 ft 428 kts 267°
2026-05-06 06:49 61.01660 -143.02069 37854 ft 430 kts 267°
2026-05-06 06:49 61.01905 -143.14284 37829 ft 429 kts 266°
2026-05-06 06:50 61.02138 -143.26687 37826 ft 430 kts 266°
2026-05-06 06:50 61.02362 -143.38941 37815 ft 431 kts 266°
2026-05-06 06:51 61.02571 -143.51292 37820 ft 431 kts 266°
2026-05-06 06:51 61.02774 -143.63669 37836 ft 431 kts 266°
2026-05-06 06:52 61.02977 -143.76035 37838 ft 432 kts 266°
2026-05-06 06:52 61.03163 -143.88413 37840 ft 432 kts 266°
2026-05-06 06:53 61.03326 -144.00792 37826 ft 432 kts 266°
2026-05-06 06:53 61.03480 -144.13200 37835 ft 433 kts 266°
2026-05-06 06:54 61.03628 -144.25643 37839 ft 433 kts 266°
2026-05-06 06:54 61.03765 -144.38060 37841 ft 433 kts 266°
2026-05-06 06:55 61.03893 -144.50487 37843 ft 433 kts 266°
2026-05-06 06:55 61.04015 -144.62834 37850 ft 433 kts 266°
2026-05-06 06:56 61.04121 -144.75288 37885 ft 434 kts 265°
2026-05-06 06:56 61.04207 -144.87754 37859 ft 435 kts 265°
2026-05-06 06:57 61.04281 -145.00232 37855 ft 435 kts 265°
2026-05-06 06:57 61.04340 -145.12735 37854 ft 436 kts 266°
2026-05-06 06:58 61.04665 -145.25261 37852 ft 439 kts 270°
2026-05-06 06:58 61.05279 -145.37827 37845 ft 440 kts 271°
2026-05-06 06:59 61.05871 -145.50418 37876 ft 440 kts 270°
2026-05-06 06:59 61.06363 -145.63025 37880 ft 440 kts 270°
2026-05-06 07:00 61.06803 -145.75644 37854 ft 441 kts 270°
2026-05-06 07:00 61.07245 -145.88264 37851 ft 441 kts 270°
2026-05-06 07:01 61.07692 -146.00905 37851 ft 441 kts 270°
2026-05-06 07:01 61.08133 -146.13548 37847 ft 441 kts 270°
2026-05-06 07:02 61.08563 -146.26174 37846 ft 440 kts 269°
2026-05-06 07:02 61.08974 -146.38797 37843 ft 440 kts 269°
2026-05-06 07:03 61.09364 -146.51425 37317 ft 444 kts 269°
2026-05-06 07:03 61.09553 -146.57788 36242 ft 454 kts 269°
2026-05-06 07:03 61.09743 -146.64250 35890 ft 446 kts 269°
2026-05-06 07:03 61.09934 -146.70586 35366 ft 443 kts 269°
2026-05-06 07:04 61.10124 -146.76934 34849 ft 441 kts 269°
2026-05-06 07:04 61.10312 -146.83276 34305 ft 438 kts 269°
2026-05-06 07:04 61.10491 -146.89546 33765 ft 436 kts 269°
2026-05-06 07:04 61.10666 -146.95781 33190 ft 432 kts 268°
2026-05-06 07:05 61.10835 -147.01950 32682 ft 427 kts 268°
2026-05-06 07:05 61.10999 -147.08051 32194 ft 423 kts 268°
2026-05-06 07:05 61.11157 -147.14114 31656 ft 420 kts 268°
2026-05-06 07:05 61.11310 -147.20132 31166 ft 417 kts 268°
2026-05-06 07:06 61.11464 -147.26100 30669 ft 414 kts 269°
2026-05-06 07:06 61.11616 -147.32008 30197 ft 410 kts 268°
2026-05-06 07:06 61.11762 -147.37876 29687 ft 407 kts 268°
2026-05-06 07:06 61.11905 -147.43687 29213 ft 401 kts 268°
2026-05-06 07:07 61.12044 -147.49408 28757 ft 395 kts 268°
2026-05-06 07:07 61.12178 -147.55049 28335 ft 389 kts 268°
2026-05-06 07:07 61.12307 -147.60598 27914 ft 383 kts 268°
2026-05-06 07:07 61.12430 -147.66076 27483 ft 378 kts 268°
2026-05-06 07:08 61.12551 -147.71469 27064 ft 373 kts 267°
2026-05-06 07:08 61.12670 -147.76786 26649 ft 368 kts 267°
2026-05-06 07:08 61.12784 -147.82041 26220 ft 364 kts 267°
2026-05-06 07:08 61.12892 -147.87253 25779 ft 360 kts 268°
2026-05-06 07:09 61.12997 -147.92416 25322 ft 358 kts 268°
2026-05-06 07:09 61.13097 -147.97537 24888 ft 355 kts 266°
2026-05-06 07:09 61.13194 -148.02619 24438 ft 353 kts 267°
2026-05-06 07:09 61.13290 -148.07677 23984 ft 351 kts 267°
2026-05-06 07:10 61.13386 -148.12720 23530 ft 350 kts 266°
2026-05-06 07:10 61.13482 -148.17736 23009 ft 349 kts 268°
2026-05-06 07:10 61.13575 -148.22733 22555 ft 346 kts 268°
2026-05-06 07:10 61.13663 -148.27672 22120 ft 342 kts 266°
2026-05-06 07:11 61.13749 -148.32583 21685 ft 340 kts 266°
2026-05-06 07:11 61.13832 -148.37460 21261 ft 337 kts 266°
2026-05-06 07:11 61.13916 -148.42282 20848 ft 333 kts 266°
2026-05-06 07:11 61.14023 -148.47059 20424 ft 333 kts 270°
2026-05-06 07:12 61.14501 -148.51766 19975 ft 337 kts 283°
2026-05-06 07:12 61.15310 -148.56330 19534 ft 338 kts 285°
2026-05-06 07:12 61.16128 -148.60896 19104 ft 338 kts 284°
2026-05-06 07:12 61.16934 -148.65448 18690 ft 336 kts 286°
2026-05-06 07:13 61.17731 -148.70000 18260 ft 335 kts 286°
2026-05-06 07:13 61.18519 -148.74485 17852 ft 333 kts 287°
2026-05-06 07:13 61.19304 -148.78961 17533 ft 328 kts 286°
2026-05-06 07:13 61.20078 -148.83393 17134 ft 326 kts 285°
2026-05-06 07:14 61.20841 -148.87793 16725 ft 324 kts 286°
2026-05-06 07:14 61.21600 -148.92181 16331 ft 322 kts 286°
2026-05-06 07:14 61.22350 -148.96542 15940 ft 320 kts 285°
2026-05-06 07:14 61.23096 -149.00897 15560 ft 319 kts 286°
2026-05-06 07:15 61.23841 -149.05227 15150 ft 319 kts 285°
2026-05-06 07:15 61.24447 -149.09609 14788 ft 313 kts 275°
2026-05-06 07:15 61.24729 -149.14068 14452 ft 310 kts 272°
2026-05-06 07:15 61.24998 -149.18502 14106 ft 309 kts 274°
2026-05-06 07:16 61.25174 -149.21430 13881 ft 308 kts 272°
2026-05-06 07:16 61.25437 -149.25851 13537 ft 308 kts 272°
2026-05-06 07:16 61.25698 -149.30269 13191 ft 307 kts 272°
2026-05-06 07:16 61.25956 -149.34647 12848 ft 305 kts 274°
2026-05-06 07:17 61.26217 -149.38996 12511 ft 302 kts 274°
2026-05-06 07:17 61.26558 -149.44723 12084 ft 296 kts 274°
2026-05-06 07:17 61.26722 -149.47523 11870 ft 294 kts 274°
2026-05-06 07:17 61.26964 -149.51727 11553 ft 292 kts 274°
2026-05-06 07:18 61.27202 -149.55911 11232 ft 290 kts 274°
2026-05-06 07:18 61.27436 -149.60071 10916 ft 289 kts 274°
2026-05-06 07:18 61.27668 -149.64209 10565 ft 288 kts 274°
2026-05-06 07:18 61.27907 -149.68328 10244 ft 287 kts 276°
2026-05-06 07:19 61.28443 -149.72322 9938 ft 288 kts 291°
2026-05-06 07:19 61.29406 -149.75954 9735 ft 284 kts 300°
2026-05-06 07:19 61.30433 -149.79398 9606 ft 275 kts 299°
2026-05-06 07:19 61.31401 -149.82682 9470 ft 260 kts 299°
2026-05-06 07:20 61.32331 -149.85860 9331 ft 253 kts 299°
2026-05-06 07:20 61.33232 -149.88954 9193 ft 247 kts 299°
2026-05-06 07:20 61.34104 -149.91930 9058 ft 234 kts 301°
2026-05-06 07:20 61.35164 -149.94479 8917 ft 233 kts 318°
2026-05-06 07:21 61.36503 -149.96287 8761 ft 233 kts 335°
2026-05-06 07:21 61.38034 -149.97336 8432 ft 232 kts 343°
2026-05-06 07:21 61.39587 -149.98294 8066 ft 233 kts 342°
2026-05-06 07:21 61.41128 -149.99298 7703 ft 232 kts 342°
2026-05-06 07:22 61.42619 -150.00548 7280 ft 231 kts 325°
2026-05-06 07:22 61.43714 -150.02897 6956 ft 222 kts 296°
2026-05-06 07:22 61.44149 -150.05772 6828 ft 197 kts 270°
2026-05-06 07:22 61.44004 -150.08452 6674 ft 177 kts 246°
2026-05-06 07:23 61.43438 -150.10679 6320 ft 172 kts 225°
2026-05-06 07:23 61.42553 -150.12283 5964 ft 167 kts 205°
2026-05-06 07:23 61.41486 -150.13127 5590 ft 163 kts 186°
2026-05-06 07:23 61.40364 -150.13167 5224 ft 161 kts 169°
2026-05-06 07:24 61.39294 -150.12527 4851 ft 159 kts 160°
2026-05-06 07:24 61.38230 -150.11826 4417 ft 162 kts 162°
2026-05-06 07:24 61.37175 -150.11188 4070 ft 153 kts 162°
2026-05-06 07:24 61.36187 -150.10613 3812 ft 141 kts 161°
2026-05-06 07:25 61.35266 -150.10085 3595 ft 135 kts 161°
2026-05-06 07:25 61.34359 -150.09568 3392 ft 135 kts 162°
2026-05-06 07:25 61.33454 -150.09054 3191 ft 135 kts 162°
2026-05-06 07:25 61.32549 -150.08540 3002 ft 135 kts 162°
2026-05-06 07:26 61.31641 -150.08026 2803 ft 135 kts 162°
2026-05-06 07:26 61.30733 -150.07513 2604 ft 136 kts 163°
2026-05-06 07:26 61.29820 -150.06997 2412 ft 136 kts 163°
2026-05-06 07:26 61.28905 -150.06481 2202 ft 136 kts 163°
2026-05-06 07:27 61.27988 -150.05964 1997 ft 136 kts 163°
2026-05-06 07:27 61.27073 -150.05448 1802 ft 137 kts 163°
2026-05-06 07:27 61.26152 -150.04929 1600 ft 137 kts 163°
2026-05-06 07:27 61.25233 -150.04408 1397 ft 137 kts 163°
2026-05-06 07:28 61.24324 -150.03894 1191 ft 137 kts 163°
2026-05-06 07:28 61.23575 -150.03483 1029 ft 137 kts 164°
2026-05-06 07:28 61.21765 -150.02462 612 ft 134 kts 165°
2026-05-06 07:29 61.20872 -150.01962 398 ft 133 kts 164°
2026-05-06 07:29 61.19961 -150.01465 243 ft 147 kts 165°
2026-05-06 07:29 61.18936 -150.00922 1034 ft 154 kts 165°
2026-05-06 07:29 61.17873 -150.00525 1921 ft 160 kts 179°
2026-05-06 07:30 61.16746 -150.01394 2176 ft 189 kts 213°
2026-05-06 07:30 61.15636 -150.03179 2609 ft 211 kts 218°
2026-05-06 07:30 61.14497 -150.05148 3444 ft 217 kts 217°
2026-05-06 07:30 61.13312 -150.07131 3787 ft 219 kts 216°
2026-05-06 07:31 61.12276 -150.09433 3873 ft 222 kts 241°
2026-05-06 07:31 61.11882 -150.12530 3883 ft 225 kts 266°
2026-05-06 07:31 61.12150 -150.15718 3771 ft 229 kts 295°
2026-05-06 07:31 61.13138 -150.18221 3513 ft 225 kts 327°
2026-05-06 07:32 61.14550 -150.19520 3259 ft 222 kts 343°
2026-05-06 07:32 61.16020 -150.20466 3005 ft 220 kts 346°
2026-05-06 07:32 61.17477 -150.21072 2883 ft 212 kts 353°
2026-05-06 07:32 61.18897 -150.21496 2880 ft 202 kts 354°
2026-05-06 07:33 61.20271 -150.21891 2889 ft 198 kts 354°
2026-05-06 07:33 61.21632 -150.22278 2892 ft 197 kts 354°
2026-05-06 07:33 61.22988 -150.22663 2893 ft 196 kts 354°
2026-05-06 07:33 61.24342 -150.23049 2890 ft 196 kts 354°
2026-05-06 07:34 61.25695 -150.23434 2890 ft 196 kts 354°
2026-05-06 07:34 61.27047 -150.23818 2891 ft 196 kts 354°
2026-05-06 07:34 61.28399 -150.24200 2891 ft 196 kts 354°
2026-05-06 07:34 61.29731 -150.24170 2897 ft 185 kts 21°
2026-05-06 07:35 61.30660 -150.22650 2889 ft 163 kts 65°
2026-05-06 07:35 61.30755 -150.20508 2891 ft 147 kts 112°
2026-05-06 07:35 61.30146 -150.18883 2898 ft 143 kts 138°
2026-05-06 07:35 61.29345 -150.17557 2588 ft 150 kts 141°
2026-05-06 07:36 61.28627 -150.16030 2358 ft 147 kts 122°
2026-05-06 07:36 61.28158 -150.14191 2160 ft 144 kts 115°
2026-05-06 07:36 61.27741 -150.12307 1978 ft 142 kts 114°
2026-05-06 07:36 61.27337 -150.10452 1873 ft 138 kts 114°
2026-05-06 07:37 61.26942 -150.08644 1751 ft 136 kts 114°
2026-05-06 07:37 61.26550 -150.06867 1603 ft 135 kts 114°
2026-05-06 07:37 61.26044 -150.05239 1489 ft 136 kts 137°
2026-05-06 07:37 61.25195 -150.04387 1356 ft 137 kts 165°
2026-05-06 07:38 61.24262 -150.03866 1168 ft 141 kts 164°
2026-05-06 07:38 61.23313 -150.03331 959 ft 142 kts 163°
2026-05-06 07:38 61.22366 -150.02799 745 ft 140 kts 164°
2026-05-06 07:38 61.21427 -150.02277 536 ft 139 kts 165°
2026-05-06 07:39 61.20497 -150.01755 312 ft 138 kts 164°
2026-05-06 07:39 61.19549 -150.01230 129 ft 140 kts 165°
2026-05-06 07:39 61.18707 -150.00755 120 ft 105 kts 164°
2026-05-06 07:39 61.18164 -150.00448 117 ft 56 kts 165°
2026-05-06 07:40 61.17941 -150.00299 117 ft 26 kts 149°
2026-05-06 07:40 61.17804 -150.00048 125 ft 23 kts 132°
2026-05-06 07:40 61.17711 -149.99872 119 ft 15 kts 139°
2026-05-06 07:40 61.17667 -149.99688 117 ft 16 kts 74°
2026-05-06 07:41 61.17703 -149.99449 118 ft 17 kts 71°
2026-05-06 07:41 61.17735 -149.99270 119 ft 13 kts 71°
2026-05-06 07:41 61.17688 -149.99130 118 ft 14 kts 156°
2026-05-06 07:41 61.17675 -149.98942 120 ft 16 kts 70°
2026-05-06 07:42 61.17709 -149.98757 117 ft 12 kts 68°
2026-05-06 07:42 61.17712 -149.98629 117 ft 5 kts 162°
2026-05-06 07:42 61.17659 -149.98697 120 ft 10 kts 205°
2026-05-06 07:42 61.17601 -149.98644 119 ft 9 kts 130°
2026-05-06 07:43 61.17582 -149.98528 119 ft 6 kts 106°
2026-05-06 07:43 61.17575 -149.98484 119 ft 0 kts 106°